20081027,0
20081225,80
20090126,80
20090225,80
20090325,80
20090427,80
20090525,80
20090625,90
20090727,90
20090825,90
20090925,120
20091026,120
20091125,120
20091225,120
20100125,120
20100225,120
20100325,120
20100426,120
20100525,120
20100625,120
20100726,120
20100825,120
20100927,120
20101025,120
20101125,120
20101227,120
20110125,120
20110225,120
20110325,120
20110425,120
20110525,120
20110627,120
20110725,120
20110825,80
20110926,80
20111025,80
20111125,80
20111226,80
20120125,80
20120227,80
20120326,80
20120425,80
20120525,80
20120625,80
20120725,80
20120827,80
20120925,80
20121025,80
20121126,50
20121225,50
20130125,50
20130225,50
20130325,50
20130425,60
20130527,60
20130625,60
20130725,60
20130826,60
20130925,60
20131025,60
20131125,60
20131225,60
20140127,60
20140225,60
20140325,60
20140425,60
20140526,60
20140625,60
20140725,60
20140825,60
20140925,60
20141027,60
20141125,60
20141225,60
20150126,60
20150225,60
20150325,60
20150427,60
20150525,60
20150625,60
20150727,60
20150825,60
20150925,50
20151026,50
20151125,50
20151225,50
20160125,50
20160225,50
20160325,50
20160425,35
20160525,35
20160627,35
20160725,35
20160825,35
20160926,35
20161025,35
20161125,35
20161226,35
20170125,35
20170227,35
20170327,35
20170425,35
20170525,35
20170626,35
20170725,35
20170825,35
20170925,35
20171025,35
20171127,35
20171225,35
20180125,35
20180226,35
20180326,35
20180425,35
20180525,35
20180625,35
20180725,35
20180827,35
20180925,30
20181025,30
20181126,30
20181225,30
20190125,30
20190225,30
20190325,30
20190425,30
20190527,30
20190625,30
20190725,30
20190826,30
20190925,30
20191025,30
20191125,30
20191225,30
20200127,30
20200225,25
20200325,25
20200427,15
20200525,15
20200625,15
20200727,15
20200825,15
20200925,15
20201026,15
20201125,15
20201225,15
20210125,15
20210225,15
20210325,15
20210426,15
20210525,15
20210625,15
20210726,15
20210825,15
20210927,15
20211025,15
20211125,15
20211227,15
20220125,15
20220225,15
20220325,15
20220425,15
20220525,15
20220627,15
20220725,15
20220825,15
20220926,15
20221025,15
20221125,15
20221226,15
20230125,15
20230227,15
20230327,15
20230425,15
20230525,15
20230626,15
20230725,15
20230825,15
20230925,15
20231025,15
20231127,15
20231225,15
20240125,15
20240226,15
20240325,15
20240425,15
